Time,TemperatureF,DewpointF,PressureIn,WindDirection,WindDirectionDegrees,WindSpeedMPH,WindSpeedGustMPH,Humidity,HourlyPrecipIn,Conditions,Clouds,dailyrainin,SoftwareType,DateUTC
2013-01-16 00:02:00,40.8,21.6,30.52,North,1,10.0,16.0,46,0.00,,,0.06,meteohub,2013-01-16 08:02:00,
2013-01-16 00:07:00,40.8,21.6,30.52,NW,323,5.0,15.0,46,0.00,,,0.00,meteohub,2013-01-16 08:07:00,
2013-01-16 00:12:00,40.6,21.6,30.52,SSE,149,4.0,15.0,46,0.00,,,0.00,meteohub,2013-01-16 08:12:00,
2013-01-16 00:17:00,40.1,21.6,30.51,North,356,7.0,13.0,47,0.00,,,0.00,meteohub,2013-01-16 08:17:00,
2013-01-16 00:22:00,40.3,21.7,30.51,NNE,22,6.0,13.0,47,0.00,,,0.00,meteohub,2013-01-16 08:22:00,
2013-01-16 00:27:00,39.9,21.4,30.52,NE,48,5.0,14.0,47,0.00,,,0.00,meteohub,2013-01-16 08:27:00,
2013-01-16 00:32:00,39.4,21.4,30.51,NE,34,8.0,14.0,48,0.00,,,0.00,meteohub,2013-01-16 08:32:00,
2013-01-16 00:37:00,39.0,21.6,30.51,NNE,23,5.0,13.0,49,0.00,,,0.00,meteohub,2013-01-16 08:37:00,
2013-01-16 00:42:00,38.8,21.4,30.51,NE,49,5.0,13.0,49,0.00,,,0.00,meteohub,2013-01-16 08:42:00,
2013-01-16 00:47:00,38.8,21.7,30.51,NNE,24,9.0,13.0,50,0.00,,,0.00,meteohub,2013-01-16 08:47:00,
2013-01-16 00:52:00,38.8,21.7,30.51,NNE,29,8.0,15.0,50,0.00,,,0.00,meteohub,2013-01-16 08:52:00,
2013-01-16 00:57:00,39.0,21.9,30.51,NNE,25,8.0,15.0,50,0.00,,,0.00,meteohub,2013-01-16 08:57:00,
2013-01-16 01:02:00,39.2,21.6,30.51,NNE,23,7.0,15.0,49,0.00,,,0.00,meteohub,2013-01-16 09:02:00,
2013-01-16 01:07:00,39.7,22.1,30.51,NNE,25,10.0,15.0,49,0.00,,,0.00,meteohub,2013-01-16 09:07:00,
2013-01-16 01:12:00,40.6,21.9,30.51,NE,42,11.0,18.0,47,0.00,,,0.00,meteohub,2013-01-16 09:12:00,
2013-01-16 01:17:00,41.7,22.5,30.50,NW,315,5.0,18.0,46,0.00,,,0.00,meteohub,2013-01-16 09:17:00,
2013-01-16 01:22:00,42.1,22.3,30.50,North,0,14.0,18.0,45,0.00,,,0.00,meteohub,2013-01-16 09:22:00,
2013-01-16 01:27:00,42.1,22.3,30.50,NE,42,10.0,18.0,45,0.00,,,0.00,meteohub,2013-01-16 09:27:00,
2013-01-16 01:32:00,42.1,21.7,30.50,NNE,20,12.0,18.0,44,0.00,,,0.00,meteohub,2013-01-16 09:32:00,
2013-01-16 01:37:00,42.1,21.7,30.50,NNE,18,9.0,19.0,44,0.00,,,0.00,meteohub,2013-01-16 09:37:00,
2013-01-16 01:42:00,41.9,22.1,30.51,North,6,11.0,21.0,45,0.00,,,0.00,meteohub,2013-01-16 09:42:00,
2013-01-16 01:47:00,41.5,21.7,30.51,NE,39,14.0,21.0,45,0.00,,,0.00,meteohub,2013-01-16 09:47:00,
2013-01-16 01:52:00,41.5,21.7,30.51,NNE,28,12.0,21.0,45,0.00,,,0.00,meteohub,2013-01-16 09:52:00,
2013-01-16 01:57:00,41.7,21.9,30.51,NE,44,11.0,18.0,45,0.00,,,0.00,meteohub,2013-01-16 09:57:00,
2013-01-16 02:02:00,41.7,21.9,30.51,NNE,17,6.0,18.0,45,0.00,,,0.00,meteohub,2013-01-16 10:02:00,
2013-01-16 02:07:00,41.5,21.7,30.51,NNE,23,9.0,16.0,45,0.00,,,0.00,meteohub,2013-01-16 10:07:00,
2013-01-16 02:12:00,41.5,21.7,30.51,North,4,9.0,16.0,45,0.00,,,0.00,meteohub,2013-01-16 10:12:00,
2013-01-16 02:17:00,41.5,21.7,30.51,North,1,7.0,14.0,45,0.00,,,0.00,meteohub,2013-01-16 10:17:00,
2013-01-16 02:22:00,41.4,22.1,30.51,NE,39,8.0,13.0,46,0.00,,,0.00,meteohub,2013-01-16 10:22:00,
2013-01-16 02:27:00,41.2,21.9,30.51,NNE,24,5.0,13.0,46,0.00,,,0.00,meteohub,2013-01-16 10:27:00,
2013-01-16 02:32:00,41.2,21.9,30.50,NNW,347,7.0,13.0,46,0.00,,,0.00,meteohub,2013-01-16 10:32:00,
2013-01-16 02:37:00,41.0,21.7,30.50,NNE,29,6.0,13.0,46,0.00,,,0.00,meteohub,2013-01-16 10:37:00,
2013-01-16 02:42:00,40.5,21.7,30.50,NNE,25,9.0,13.0,47,0.00,,,0.00,meteohub,2013-01-16 10:42:00,
2013-01-16 02:47:00,40.3,21.7,30.50,NNE,30,8.0,14.0,47,0.00,,,0.00,meteohub,2013-01-16 10:47:00,
2013-01-16 02:52:00,40.5,21.7,30.50,NNE,20,8.0,15.0,47,0.00,,,0.00,meteohub,2013-01-16 10:52:00,
2013-01-16 02:57:00,40.6,21.9,30.50,NNE,29,4.0,16.0,47,0.00,,,0.00,meteohub,2013-01-16 10:57:00,
2013-01-16 03:02:00,40.8,21.6,30.51,NNE,25,13.0,16.0,46,0.00,,,0.00,meteohub,2013-01-16 11:02:00,
2013-01-16 03:07:00,40.8,21.6,30.51,NNE,33,10.0,16.0,46,0.00,,,0.00,meteohub,2013-01-16 11:07:00,
2013-01-16 03:12:00,41.0,21.2,30.51,NE,40,7.0,16.0,45,0.00,,,0.00,meteohub,2013-01-16 11:12:00,
2013-01-16 03:17:00,40.8,21.2,30.51,NNE,16,8.0,14.0,45,0.00,,,0.00,meteohub,2013-01-16 11:17:00,
2013-01-16 03:22:00,40.6,21.6,30.50,NNE,27,11.0,16.0,46,0.00,,,0.00,meteohub,2013-01-16 11:22:00,
2013-01-16 03:27:00,40.6,21.6,30.50,NE,35,9.0,16.0,46,0.00,,,0.00,meteohub,2013-01-16 11:27:00,
2013-01-16 03:32:00,40.6,21.6,30.50,NE,39,5.0,15.0,46,0.00,,,0.00,meteohub,2013-01-16 11:32:00,
2013-01-16 03:37:00,40.8,21.2,30.50,NNE,32,6.0,16.0,45,0.00,,,0.00,meteohub,2013-01-16 11:37:00,
2013-01-16 03:42:00,40.8,21.2,30.50,NE,37,10.0,16.0,45,0.00,,,0.00,meteohub,2013-01-16 11:42:00,
2013-01-16 03:47:00,40.8,21.2,30.50,NE,42,7.0,15.0,45,0.00,,,0.00,meteohub,2013-01-16 11:47:00,
2013-01-16 03:52:00,40.6,21.0,30.50,NNE,32,10.0,13.0,45,0.00,,,0.00,meteohub,2013-01-16 11:52:00,
2013-01-16 03:57:00,40.6,21.0,30.49,NE,36,9.0,13.0,45,0.00,,,0.00,meteohub,2013-01-16 11:57:00,
2013-01-16 04:02:00,40.6,21.6,30.49,North,359,7.0,13.0,46,0.00,,,0.00,meteohub,2013-01-16 12:02:00,
2013-01-16 04:07:00,40.3,21.2,30.49,ENE,63,7.0,13.0,46,0.00,,,0.00,meteohub,2013-01-16 12:07:00,
2013-01-16 04:12:00,39.9,20.8,30.48,NNE,27,8.0,13.0,46,0.00,,,0.00,meteohub,2013-01-16 12:12:00,
2013-01-16 04:17:00,39.7,21.2,30.48,NNE,27,3.0,15.0,47,0.00,,,0.00,meteohub,2013-01-16 12:17:00,
2013-01-16 04:22:00,39.4,20.8,30.48,NNE,24,7.0,15.0,47,0.00,,,0.00,meteohub,2013-01-16 12:22:00,
2013-01-16 04:27:00,39.4,21.4,30.48,North,359,5.0,15.0,48,0.00,,,0.00,meteohub,2013-01-16 12:27:00,
2013-01-16 04:32:00,39.2,21.2,30.48,NNE,29,10.0,12.0,48,0.00,,,0.00,meteohub,2013-01-16 12:32:00,
2013-01-16 04:37:00,39.0,21.0,30.48,North,5,9.0,13.0,48,0.00,,,0.00,meteohub,2013-01-16 12:37:00,
2013-01-16 04:42:00,38.8,20.8,30.48,NNE,21,5.0,14.0,48,0.00,,,0.00,meteohub,2013-01-16 12:42:00,
2013-01-16 04:47:00,38.8,20.8,30.48,North,5,7.0,14.0,48,0.00,,,0.00,meteohub,2013-01-16 12:47:00,
2013-01-16 04:52:00,39.2,21.2,30.48,West,274,7.0,14.0,48,0.00,,,0.00,meteohub,2013-01-16 12:52:00,
2013-01-16 04:57:00,39.7,21.2,30.48,NNE,20,14.0,17.0,47,0.00,,,0.00,meteohub,2013-01-16 12:57:00,
2013-01-16 05:02:00,39.9,20.8,30.47,NNE,30,5.0,19.0,46,0.00,,,0.00,meteohub,2013-01-16 13:02:00,
2013-01-16 05:07:00,39.7,20.7,30.47,NE,39,15.0,19.0,46,0.00,,,0.00,meteohub,2013-01-16 13:07:00,
2013-01-16 05:12:00,39.9,20.8,30.47,NE,35,10.0,19.0,46,0.00,,,0.00,meteohub,2013-01-16 13:12:00,
2013-01-16 05:17:00,39.9,20.8,30.47,East,84,10.0,19.0,46,0.00,,,0.00,meteohub,2013-01-16 13:17:00,
2013-01-16 05:22:00,40.1,20.5,30.47,NNE,25,7.0,19.0,45,0.00,,,0.00,meteohub,2013-01-16 13:22:00,
2013-01-16 05:27:00,39.9,20.3,30.48,NNE,29,12.0,17.0,45,0.00,,,0.00,meteohub,2013-01-16 13:27:00,
2013-01-16 05:32:00,40.1,20.5,30.47,North,8,14.0,16.0,45,0.00,,,0.00,meteohub,2013-01-16 13:32:00,
2013-01-16 05:37:00,40.5,20.3,30.47,NNE,32,14.0,19.0,44,0.00,,,0.00,meteohub,2013-01-16 13:37:00,
2013-01-16 05:42:00,40.5,20.3,30.47,East,80,12.0,19.0,44,0.00,,,0.00,meteohub,2013-01-16 13:42:00,
2013-01-16 05:47:00,40.3,20.1,30.47,NNE,26,12.0,19.0,44,0.00,,,0.00,meteohub,2013-01-16 13:47:00,
2013-01-16 05:52:00,40.5,20.3,30.47,NNE,32,16.0,17.0,44,0.00,,,0.00,meteohub,2013-01-16 13:52:00,
2013-01-16 05:57:00,40.5,20.3,30.47,NNE,33,13.0,18.0,44,0.00,,,0.00,meteohub,2013-01-16 13:57:00,
2013-01-16 06:02:00,40.5,19.8,30.47,NNE,32,15.0,18.0,43,0.00,,,0.00,meteohub,2013-01-16 14:02:00,
2013-01-16 06:07:00,40.3,19.6,30.47,West,269,8.0,18.0,43,0.00,,,0.00,meteohub,2013-01-16 14:07:00,
2013-01-16 06:12:00,40.3,19.6,30.48,NE,48,8.0,16.0,43,0.00,,,0.00,meteohub,2013-01-16 14:12:00,
2013-01-16 06:17:00,40.5,19.8,30.47,North,8,6.0,16.0,43,0.00,,,0.00,meteohub,2013-01-16 14:17:00,
2013-01-16 06:22:00,40.5,19.8,30.47,NNE,24,15.0,18.0,43,0.00,,,0.00,meteohub,2013-01-16 14:22:00,
2013-01-16 06:27:00,40.6,19.4,30.47,NNE,23,10.0,18.0,42,0.00,,,0.00,meteohub,2013-01-16 14:27:00,
2013-01-16 06:32:00,40.8,19.6,30.47,SE,130,7.0,18.0,42,0.00,,,0.00,meteohub,2013-01-16 14:32:00,
2013-01-16 06:37:00,41.0,19.0,30.47,NNW,347,9.0,18.0,41,0.00,,,0.00,meteohub,2013-01-16 14:37:00,
2013-01-16 06:42:00,40.8,18.9,30.48,NE,37,5.0,18.0,41,0.00,,,0.00,meteohub,2013-01-16 14:42:00,
2013-01-16 06:47:00,40.6,19.4,30.48,NNE,16,9.0,18.0,42,0.00,,,0.00,meteohub,2013-01-16 14:47:00,
2013-01-16 06:52:00,40.3,19.0,30.48,NNE,33,6.0,14.0,42,0.00,,,0.00,meteohub,2013-01-16 14:52:00,
2013-01-16 06:57:00,39.4,19.2,30.48,NNE,15,11.0,14.0,44,0.00,,,0.00,meteohub,2013-01-16 14:57:00,
2013-01-16 07:02:00,39.0,18.9,30.48,NNE,24,8.0,13.0,44,0.00,,,0.00,meteohub,2013-01-16 15:02:00,
2013-01-16 07:07:00,38.8,18.9,30.48,NNE,30,10.0,13.0,44,0.00,,,0.00,meteohub,2013-01-16 15:07:00,
2013-01-16 07:12:00,38.5,19.0,30.48,North,8,5.0,14.0,45,0.00,,,0.00,meteohub,2013-01-16 15:12:00,
2013-01-16 07:17:00,38.1,18.7,30.48,NNE,27,6.0,14.0,45,0.00,,,0.00,meteohub,2013-01-16 15:17:00,
2013-01-16 07:22:00,37.8,18.9,30.47,NNE,32,10.0,14.0,46,0.00,,,0.00,meteohub,2013-01-16 15:22:00,
2013-01-16 07:27:00,36.9,19.0,30.48,NE,39,10.0,13.0,48,0.00,,,0.00,meteohub,2013-01-16 15:27:00,
2013-01-16 07:32:00,36.5,19.2,30.48,NNE,18,8.0,13.0,49,0.00,,,0.00,meteohub,2013-01-16 15:32:00,
2013-01-16 07:37:00,36.7,18.9,30.48,North,354,8.0,12.0,48,0.00,,,0.00,meteohub,2013-01-16 15:37:00,
2013-01-16 07:42:00,37.2,18.9,30.48,North,354,4.0,12.0,47,0.00,,,0.00,meteohub,2013-01-16 15:42:00,
2013-01-16 07:47:00,37.8,18.9,30.48,NNE,20,6.0,12.0,46,0.00,,,0.00,meteohub,2013-01-16 15:47:00,
2013-01-16 07:52:00,37.9,19.0,30.48,NNE,18,5.0,12.0,46,0.00,,,0.00,meteohub,2013-01-16 15:52:00,
2013-01-16 07:57:00,38.3,19.4,30.48,NNE,19,4.0,11.0,46,0.00,,,0.00,meteohub,2013-01-16 15:57:00,
2013-01-16 08:02:00,38.7,18.7,30.48,NNE,32,2.0,10.0,44,0.00,,,0.00,meteohub,2013-01-16 16:02:00,
2013-01-16 08:07:00,39.4,18.7,30.49,NNE,24,3.0,9.0,43,0.00,,,0.00,meteohub,2013-01-16 16:07:00,
2013-01-16 08:12:00,39.9,18.7,30.49,NE,34,5.0,14.0,42,0.00,,,0.00,meteohub,2013-01-16 16:12:00,
2013-01-16 08:17:00,41.2,18.7,30.49,NNE,30,11.0,14.0,40,0.00,,,0.00,meteohub,2013-01-16 16:17:00,
2013-01-16 08:22:00,41.9,18.7,30.49,North,8,5.0,15.0,39,0.00,,,0.00,meteohub,2013-01-16 16:22:00,
2013-01-16 08:27:00,42.6,18.1,30.49,NE,42,5.0,15.0,37,0.00,,,0.00,meteohub,2013-01-16 16:27:00,
2013-01-16 08:32:00,43.3,18.1,30.49,NNE,23,6.0,15.0,36,0.00,,,0.00,meteohub,2013-01-16 16:32:00,
2013-01-16 08:37:00,43.5,17.6,30.49,North,8,6.0,14.0,35,0.00,,,0.00,meteohub,2013-01-16 16:37:00,
2013-01-16 08:42:00,43.3,17.6,30.49,NNW,338,4.0,14.0,35,0.00,,,0.00,meteohub,2013-01-16 16:42:00,
2013-01-16 08:47:00,43.3,18.1,30.49,North,353,7.0,14.0,36,0.00,,,0.00,meteohub,2013-01-16 16:47:00,
2013-01-16 08:52:00,43.2,17.4,30.49,SW,214,4.0,14.0,35,0.00,,,0.00,meteohub,2013-01-16 16:52:00,
2013-01-16 08:57:00,43.5,18.3,30.49,North,354,6.0,13.0,36,0.00,,,0.00,meteohub,2013-01-16 16:57:00,
2013-01-16 09:02:00,43.7,17.8,30.49,NNE,22,9.0,13.0,35,0.00,,,0.00,meteohub,2013-01-16 17:02:00,
2013-01-16 09:07:00,43.7,18.5,30.49,NNE,22,5.0,12.0,36,0.00,,,0.00,meteohub,2013-01-16 17:07:00,
2013-01-16 09:12:00,43.2,18.7,30.49,NE,40,11.0,13.0,37,0.00,,,0.00,meteohub,2013-01-16 17:12:00,
2013-01-16 09:17:00,43.0,18.5,30.49,NE,37,6.0,13.0,37,0.00,,,0.00,meteohub,2013-01-16 17:17:00,
2013-01-16 09:22:00,42.8,18.3,30.49,NE,36,5.0,13.0,37,0.00,,,0.00,meteohub,2013-01-16 17:22:00,
2013-01-16 09:27:00,42.4,18.0,30.49,North,10,7.0,17.0,37,0.00,,,0.00,meteohub,2013-01-16 17:27:00,
2013-01-16 09:32:00,42.6,18.1,30.49,North,350,13.0,17.0,37,0.00,,,0.00,meteohub,2013-01-16 17:32:00,
2013-01-16 09:37:00,42.8,17.6,30.49,North,8,8.0,17.0,36,0.00,,,0.00,meteohub,2013-01-16 17:37:00,
2013-01-16 09:42:00,42.6,18.1,30.49,NE,53,7.0,16.0,37,0.00,,,0.00,meteohub,2013-01-16 17:42:00,
2013-01-16 09:47:00,42.6,18.9,30.49,North,356,10.0,16.0,38,0.00,,,0.00,meteohub,2013-01-16 17:47:00,
2013-01-16 09:52:00,42.6,19.4,30.49,ENE,60,10.0,16.0,39,0.00,,,0.00,meteohub,2013-01-16 17:52:00,
2013-01-16 09:57:00,42.4,19.8,30.49,NE,53,6.0,15.0,40,0.00,,,0.00,meteohub,2013-01-16 17:57:00,
2013-01-16 10:02:00,42.3,19.6,30.49,WNW,294,8.0,13.0,40,0.00,,,0.00,meteohub,2013-01-16 18:02:00,
2013-01-16 10:07:00,41.9,19.9,30.48,East,90,5.0,12.0,41,0.00,,,0.00,meteohub,2013-01-16 18:07:00,
2013-01-16 10:12:00,41.7,19.8,30.48,NNE,25,7.0,12.0,41,0.00,,,0.00,meteohub,2013-01-16 18:12:00,
2013-01-16 10:17:00,41.7,19.8,30.48,WNW,291,6.0,13.0,41,0.00,,,0.00,meteohub,2013-01-16 18:17:00,
2013-01-16 10:22:00,42.4,20.5,30.47,NNW,348,15.0,15.0,41,0.00,,,0.00,meteohub,2013-01-16 18:22:00,
2013-01-16 10:27:00,42.3,19.6,30.47,NE,39,5.0,15.0,40,0.01,,,0.01,meteohub,2013-01-16 18:27:00,
2013-01-16 10:32:00,42.3,19.6,30.46,NNE,13,6.0,15.0,40,0.01,,,0.01,meteohub,2013-01-16 18:32:00,
2013-01-16 10:37:00,42.3,19.6,30.46,NNE,20,6.0,15.0,40,0.01,,,0.01,meteohub,2013-01-16 18:37:00,
2013-01-16 10:42:00,42.3,19.6,30.45,NNW,340,6.0,15.0,40,0.01,,,0.01,meteohub,2013-01-16 18:42:00,
2013-01-16 10:47:00,42.3,19.6,30.45,North,354,9.0,15.0,40,0.01,,,0.01,meteohub,2013-01-16 18:47:00,
2013-01-16 10:52:00,42.3,20.3,30.46,North,1,15.0,15.0,41,0.01,,,0.01,meteohub,2013-01-16 18:52:00,
2013-01-16 10:57:00,42.1,20.1,30.45,West,276,1.0,17.0,41,0.02,,,0.02,meteohub,2013-01-16 18:57:00,
2013-01-16 11:02:00,42.4,20.5,30.45,NNW,336,3.0,17.0,41,0.02,,,0.02,meteohub,2013-01-16 19:02:00,
2013-01-16 11:07:00,43.0,19.8,30.45,NE,49,5.0,17.0,39,0.02,,,0.02,meteohub,2013-01-16 19:07:00,
2013-01-16 11:12:00,43.3,19.4,30.45,North,6,7.0,14.0,38,0.02,,,0.02,meteohub,2013-01-16 19:12:00,
2013-01-16 11:17:00,43.9,20.5,30.45,SW,222,6.0,17.0,39,0.02,,,0.02,meteohub,2013-01-16 19:17:00,
2013-01-16 11:22:00,44.1,19.4,30.45,WNW,298,10.0,17.0,37,0.01,,,0.02,meteohub,2013-01-16 19:22:00,
2013-01-16 11:27:00,43.9,19.2,30.44,North,10,11.0,15.0,37,0.01,,,0.02,meteohub,2013-01-16 19:27:00,
2013-01-16 11:32:00,44.1,20.1,30.44,NNW,330,4.0,15.0,38,0.01,,,0.02,meteohub,2013-01-16 19:32:00,
2013-01-16 11:37:00,44.2,20.3,30.44,ENE,65,3.0,18.0,38,0.02,,,0.03,meteohub,2013-01-16 19:37:00,
2013-01-16 11:42:00,44.2,20.8,30.44,North,1,8.0,18.0,39,0.02,,,0.03,meteohub,2013-01-16 19:42:00,
2013-01-16 11:47:00,44.2,19.6,30.43,WNW,283,3.0,12.0,37,0.02,,,0.03,meteohub,2013-01-16 19:47:00,
2013-01-16 11:52:00,44.6,19.2,30.43,NE,53,5.0,13.0,36,0.02,,,0.03,meteohub,2013-01-16 19:52:00,
2013-01-16 11:57:00,44.8,20.1,30.43,NNW,342,4.0,13.0,37,0.01,,,0.03,meteohub,2013-01-16 19:57:00,
2013-01-16 12:02:00,44.6,19.2,30.43,WNW,286,1.0,12.0,36,0.01,,,0.03,meteohub,2013-01-16 20:02:00,
2013-01-16 12:07:00,44.8,20.1,30.43,NNE,29,2.0,14.0,37,0.01,,,0.03,meteohub,2013-01-16 20:07:00,
2013-01-16 12:12:00,44.8,20.1,30.43,NE,54,2.0,14.0,37,0.02,,,0.04,meteohub,2013-01-16 20:12:00,
2013-01-16 12:17:00,44.4,19.8,30.43,NW,310,4.0,14.0,37,0.02,,,0.04,meteohub,2013-01-16 20:17:00,
2013-01-16 12:22:00,44.4,19.0,30.43,NNW,338,7.0,13.0,36,0.02,,,0.04,meteohub,2013-01-16 20:22:00,
2013-01-16 12:27:00,44.4,19.8,30.42,NE,39,3.0,13.0,37,0.02,,,0.04,meteohub,2013-01-16 20:27:00,
2013-01-16 12:32:00,44.4,19.8,30.42,NNW,345,3.0,11.0,37,0.01,,,0.04,meteohub,2013-01-16 20:32:00,
2013-01-16 12:37:00,44.2,19.0,30.42,WNW,287,1.0,11.0,36,0.01,,,0.04,meteohub,2013-01-16 20:37:00,
2013-01-16 12:42:00,44.4,19.8,30.42,WNW,295,10.0,11.0,37,0.01,,,0.04,meteohub,2013-01-16 20:42:00,
2013-01-16 12:47:00,44.8,19.4,30.41,ENE,76,2.0,11.0,36,0.01,,,0.04,meteohub,2013-01-16 20:47:00,
2013-01-16 12:52:00,45.1,20.5,30.41,WSW,255,2.0,10.0,37,0.01,,,0.04,meteohub,2013-01-16 20:52:00,
2013-01-16 12:57:00,45.3,19.9,30.41,NNE,19,4.0,10.0,36,0.01,,,0.04,meteohub,2013-01-16 20:57:00,
2013-01-16 13:02:00,45.5,20.1,30.40,NW,311,3.0,7.0,36,0.01,,,0.04,meteohub,2013-01-16 21:02:00,
2013-01-16 13:07:00,45.3,19.9,30.40,West,271,2.0,8.0,36,0.02,,,0.05,meteohub,2013-01-16 21:07:00,
2013-01-16 13:12:00,45.1,19.8,30.40,SSE,156,2.0,8.0,36,0.01,,,0.05,meteohub,2013-01-16 21:12:00,
2013-01-16 13:17:00,45.1,19.8,30.39,West,275,4.0,8.0,36,0.01,,,0.05,meteohub,2013-01-16 21:17:00,
2013-01-16 13:22:00,45.0,19.6,30.39,NNE,32,1.0,9.0,36,0.01,,,0.05,meteohub,2013-01-16 21:22:00,
2013-01-16 13:27:00,45.1,19.8,30.38,East,96,2.0,14.0,36,0.01,,,0.05,meteohub,2013-01-16 21:27:00,
2013-01-16 13:32:00,45.3,19.2,30.38,NNE,22,6.0,14.0,35,0.01,,,0.05,meteohub,2013-01-16 21:32:00,
2013-01-16 13:37:00,45.3,20.7,30.38,West,274,1.0,16.0,37,0.01,,,0.05,meteohub,2013-01-16 21:37:00,
2013-01-16 13:42:00,45.3,19.2,30.38,West,268,4.0,16.0,35,0.01,,,0.05,meteohub,2013-01-16 21:42:00,
2013-01-16 13:47:00,45.5,19.4,30.38,NE,51,1.0,16.0,35,0.01,,,0.05,meteohub,2013-01-16 21:47:00,
2013-01-16 13:52:00,45.7,19.6,30.38,NW,323,3.0,12.0,35,0.01,,,0.05,meteohub,2013-01-16 21:52:00,
2013-01-16 13:57:00,45.9,19.8,30.38,WNW,297,5.0,12.0,35,0.01,,,0.05,meteohub,2013-01-16 21:57:00,
2013-01-16 14:02:00,45.9,19.8,30.38,WNW,283,2.0,10.0,35,0.01,,,0.05,meteohub,2013-01-16 22:02:00,
2013-01-16 14:07:00,45.9,19.8,30.38,West,270,2.0,10.0,35,0.00,,,0.05,meteohub,2013-01-16 22:07:00,
2013-01-16 14:12:00,45.7,19.6,30.38,NNW,335,2.0,10.0,35,0.00,,,0.05,meteohub,2013-01-16 22:12:00,
2013-01-16 14:17:00,45.7,18.9,30.37,WNW,284,4.0,10.0,34,0.00,,,0.05,meteohub,2013-01-16 22:17:00,
2013-01-16 14:22:00,45.7,18.9,30.36,NW,313,5.0,10.0,34,0.00,,,0.05,meteohub,2013-01-16 22:22:00,
2013-01-16 14:27:00,45.7,19.6,30.36,NE,49,4.0,10.0,35,0.00,,,0.05,meteohub,2013-01-16 22:27:00,
2013-01-16 14:32:00,45.9,19.0,30.36,NNW,330,5.0,9.0,34,0.00,,,0.05,meteohub,2013-01-16 22:32:00,
2013-01-16 14:37:00,46.0,19.9,30.36,NE,36,15.0,15.0,35,0.00,,,0.05,meteohub,2013-01-16 22:37:00,
2013-01-16 14:42:00,46.4,18.9,30.37,NNW,338,5.0,15.0,33,0.00,,,0.05,meteohub,2013-01-16 22:42:00,
2013-01-16 14:47:00,46.6,19.0,30.37,NNW,338,8.0,15.0,33,0.00,,,0.05,meteohub,2013-01-16 22:47:00,
2013-01-16 14:52:00,46.6,18.3,30.37,North,5,5.0,15.0,32,0.00,,,0.05,meteohub,2013-01-16 22:52:00,
2013-01-16 14:57:00,46.6,19.0,30.37,WNW,293,6.0,12.0,33,0.00,,,0.05,meteohub,2013-01-16 22:57:00,
2013-01-16 15:02:00,46.6,18.3,30.37,NE,54,8.0,15.0,32,0.00,,,0.05,meteohub,2013-01-16 23:02:00,
2013-01-16 15:07:00,46.6,18.3,30.37,NNE,31,3.0,15.0,32,0.00,,,0.05,meteohub,2013-01-16 23:07:00,
2013-01-16 15:12:00,46.0,17.8,30.38,WNW,286,5.0,12.0,32,0.00,,,0.05,meteohub,2013-01-16 23:12:00,
2013-01-16 15:17:00,45.7,18.1,30.38,NW,305,3.0,14.0,33,0.00,,,0.05,meteohub,2013-01-16 23:17:00,
2013-01-16 15:22:00,45.1,17.8,30.38,NNW,345,8.0,14.0,33,0.00,,,0.05,meteohub,2013-01-16 23:22:00,
2013-01-16 15:27:00,45.0,18.3,30.38,North,351,7.0,14.0,34,0.00,,,0.05,meteohub,2013-01-16 23:27:00,
2013-01-16 15:32:00,44.6,18.0,30.38,North,8,6.0,13.0,34,0.00,,,0.05,meteohub,2013-01-16 23:32:00,
2013-01-16 15:37:00,44.4,17.8,30.38,North,5,6.0,13.0,34,0.00,,,0.05,meteohub,2013-01-16 23:37:00,
2013-01-16 15:42:00,44.2,18.3,30.39,NNW,346,5.0,11.0,35,0.00,,,0.05,meteohub,2013-01-16 23:42:00,
2013-01-16 15:47:00,44.1,18.1,30.39,North,350,8.0,12.0,35,0.00,,,0.05,meteohub,2013-01-16 23:47:00,
2013-01-16 15:52:00,43.9,18.0,30.39,WNW,302,1.0,12.0,35,0.00,,,0.05,meteohub,2013-01-16 23:52:00,
2013-01-16 15:57:00,43.9,18.7,30.39,NE,44,4.0,12.0,36,0.00,,,0.05,meteohub,2013-01-16 23:57:00,
2013-01-16 16:02:00,43.5,17.6,30.39,NW,309,8.0,10.0,35,0.00,,,0.05,meteohub,2013-01-17 00:02:00,
2013-01-16 16:07:00,43.5,18.3,30.39,NNE,17,6.0,8.0,36,0.00,,,0.05,meteohub,2013-01-17 00:07:00,
2013-01-16 16:12:00,43.3,18.1,30.39,WNW,297,6.0,9.0,36,0.00,,,0.05,meteohub,2013-01-17 00:12:00,
2013-01-16 16:17:00,43.3,18.1,30.39,NNW,330,3.0,9.0,36,0.00,,,0.05,meteohub,2013-01-17 00:17:00,
2013-01-16 16:22:00,43.3,17.6,30.40,NE,41,2.0,11.0,35,0.00,,,0.05,meteohub,2013-01-17 00:22:00,
2013-01-16 16:27:00,43.3,17.6,30.39,WNW,295,1.0,11.0,35,0.00,,,0.05,meteohub,2013-01-17 00:27:00,
2013-01-16 16:32:00,43.2,18.0,30.40,NW,309,2.0,11.0,36,0.00,,,0.05,meteohub,2013-01-17 00:32:00,
2013-01-16 16:37:00,42.8,18.3,30.40,NW,310,1.0,9.0,37,0.00,,,0.05,meteohub,2013-01-17 00:37:00,
2013-01-16 16:42:00,42.6,17.6,30.40,North,349,4.0,9.0,36,0.00,,,0.05,meteohub,2013-01-17 00:42:00,
2013-01-16 16:47:00,42.6,16.9,30.40,NW,314,2.0,9.0,35,0.00,,,0.05,meteohub,2013-01-17 00:47:00,
2013-01-16 16:52:00,42.4,17.4,30.40,WNW,290,8.0,9.0,36,0.00,,,0.05,meteohub,2013-01-17 00:52:00,
2013-01-16 16:58:00,41.9,17.6,30.40,NNW,334,3.0,8.0,37,0.00,,,0.05,meteohub,2013-01-17 00:58:00,
2013-01-16 17:03:00,41.5,16.5,30.40,NW,312,6.0,8.0,36,0.00,,,0.05,meteohub,2013-01-17 01:03:00,
2013-01-16 17:08:00,41.4,17.1,30.40,West,269,3.0,8.0,37,0.00,,,0.05,meteohub,2013-01-17 01:08:00,
2013-01-16 17:13:00,41.2,16.9,30.40,NNE,33,0.0,11.0,37,0.00,,,0.05,meteohub,2013-01-17 01:13:00,
2013-01-16 17:18:00,40.8,17.2,30.40,NE,40,2.0,11.0,38,0.00,,,0.05,meteohub,2013-01-17 01:18:00,
2013-01-16 17:23:00,40.6,17.1,30.40,NE,44,1.0,11.0,38,0.00,,,0.05,meteohub,2013-01-17 01:23:00,
2013-01-16 17:28:00,40.6,17.1,30.40,NNE,33,6.0,7.0,38,0.00,,,0.05,meteohub,2013-01-17 01:28:00,
2013-01-16 17:33:00,40.6,17.6,30.40,North,356,3.0,9.0,39,0.00,,,0.05,meteohub,2013-01-17 01:33:00,
2013-01-16 17:39:00,40.8,17.2,30.40,North,1,6.0,9.0,38,0.00,,,0.05,meteohub,2013-01-17 01:39:00,
2013-01-16 17:44:00,40.8,17.2,30.40,NNE,24,7.0,10.0,38,0.00,,,0.05,meteohub,2013-01-17 01:44:00,
2013-01-16 17:49:00,40.8,16.5,30.40,NW,323,7.0,10.0,37,0.00,,,0.05,meteohub,2013-01-17 01:49:00,
2013-01-16 17:54:00,41.2,16.9,30.40,North,354,8.0,10.0,37,0.00,,,0.05,meteohub,2013-01-17 01:54:00,
2013-01-16 17:59:00,41.4,17.1,30.40,West,277,5.0,13.0,37,0.00,,,0.05,meteohub,2013-01-17 01:59:00,
2013-01-16 18:04:00,41.7,16.2,30.40,NNE,17,10.0,13.0,35,0.00,,,0.05,meteohub,2013-01-17 02:04:00,
2013-01-16 18:09:00,42.1,15.1,30.40,North,349,7.0,13.0,33,0.00,,,0.05,meteohub,2013-01-17 02:09:00,
2013-01-16 18:14:00,42.6,14.9,30.39,NNE,30,11.0,13.0,32,0.00,,,0.05,meteohub,2013-01-17 02:14:00,
2013-01-16 18:19:00,43.0,15.1,30.39,NW,317,8.0,16.0,32,0.00,,,0.05,meteohub,2013-01-17 02:19:00,
2013-01-16 18:24:00,43.0,15.1,30.39,North,0,11.0,16.0,32,0.00,,,0.05,meteohub,2013-01-17 02:24:00,
2013-01-16 18:29:00,43.2,14.5,30.39,NNE,32,10.0,18.0,31,0.00,,,0.05,meteohub,2013-01-17 02:29:00,
2013-01-16 18:34:00,42.8,14.2,30.39,NNE,20,6.0,18.0,31,0.00,,,0.05,meteohub,2013-01-17 02:34:00,
2013-01-16 18:40:00,42.4,14.7,30.40,NNW,346,4.0,16.0,32,0.00,,,0.05,meteohub,2013-01-17 02:40:00,
2013-01-16 18:45:00,42.1,15.8,30.40,NNE,24,4.0,16.0,34,0.00,,,0.05,meteohub,2013-01-17 02:45:00,
2013-01-16 18:50:00,41.4,15.1,30.40,NNE,15,4.0,13.0,34,0.00,,,0.05,meteohub,2013-01-17 02:50:00,
2013-01-16 18:55:00,41.2,15.6,30.40,NNW,332,3.0,12.0,35,0.00,,,0.05,meteohub,2013-01-17 02:55:00,
2013-01-16 19:00:00,40.6,15.8,30.40,NW,311,6.0,11.0,36,0.00,,,0.05,meteohub,2013-01-17 03:00:00,
2013-01-16 19:05:00,40.5,15.6,30.40,SW,231,10.0,10.0,36,0.00,,,0.05,meteohub,2013-01-17 03:05:00,
2013-01-16 19:10:00,40.5,15.6,30.40,NNW,335,2.0,9.0,36,0.00,,,0.05,meteohub,2013-01-17 03:10:00,
2013-01-16 19:15:00,39.9,16.3,30.40,West,269,3.0,11.0,38,0.00,,,0.05,meteohub,2013-01-17 03:15:00,
2013-01-16 19:20:00,39.9,15.8,30.40,North,358,2.0,10.0,37,0.00,,,0.05,meteohub,2013-01-17 03:20:00,
2013-01-16 19:25:00,39.7,16.2,30.40,WNW,291,8.0,10.0,38,0.00,,,0.05,meteohub,2013-01-17 03:25:00,
2013-01-16 19:30:00,39.6,16.0,30.40,NNW,331,2.0,11.0,38,0.00,,,0.05,meteohub,2013-01-17 03:30:00,
2013-01-16 19:35:00,39.6,16.7,30.40,NW,312,5.0,11.0,39,0.00,,,0.05,meteohub,2013-01-17 03:35:00,
2013-01-16 19:41:00,39.6,16.7,30.40,NE,46,2.0,13.0,39,0.00,,,0.05,meteohub,2013-01-17 03:41:00,
2013-01-16 19:46:00,39.4,16.5,30.40,WNW,295,6.0,13.0,39,0.00,,,0.05,meteohub,2013-01-17 03:46:00,
2013-01-16 19:51:00,39.4,17.1,30.41,NNW,340,4.0,13.0,40,0.00,,,0.05,meteohub,2013-01-17 03:51:00,
2013-01-16 19:56:00,39.7,16.2,30.41,NW,304,4.0,13.0,38,0.00,,,0.05,meteohub,2013-01-17 03:56:00,
2013-01-16 20:01:00,39.9,16.3,30.40,West,271,3.0,13.0,38,0.00,,,0.05,meteohub,2013-01-17 04:01:00,
2013-01-16 20:06:00,40.3,16.2,30.40,NNW,330,3.0,11.0,37,0.00,,,0.05,meteohub,2013-01-17 04:06:00,
2013-01-16 20:11:00,41.4,13.6,30.40,NNE,22,9.0,12.0,32,0.00,,,0.05,meteohub,2013-01-17 04:11:00,
2013-01-16 20:17:00,43.9,12.0,30.40,NNE,21,8.0,12.0,27,0.00,,,0.05,meteohub,2013-01-17 04:17:00,
2013-01-16 20:22:00,45.1,12.2,30.40,NNW,340,6.0,17.0,26,0.00,,,0.05,meteohub,2013-01-17 04:22:00,
2013-01-16 20:27:00,45.7,12.7,30.40,NNE,30,4.0,17.0,26,0.00,,,0.05,meteohub,2013-01-17 04:27:00,
2013-01-16 20:32:00,45.9,12.0,30.40,North,0,8.0,17.0,25,0.00,,,0.05,meteohub,2013-01-17 04:32:00,
2013-01-16 20:37:00,45.7,12.7,30.40,NNE,33,7.0,17.0,26,0.00,,,0.05,meteohub,2013-01-17 04:37:00,
2013-01-16 20:42:00,45.3,12.4,30.40,NE,42,9.0,12.0,26,0.00,,,0.05,meteohub,2013-01-17 04:42:00,
2013-01-16 20:47:00,45.1,12.2,30.39,NNE,33,3.0,14.0,26,0.00,,,0.05,meteohub,2013-01-17 04:47:00,
2013-01-16 20:52:00,45.9,11.1,30.40,NNW,345,8.0,15.0,24,0.00,,,0.05,meteohub,2013-01-17 04:52:00,
2013-01-16 20:57:00,46.6,10.8,30.39,NNE,27,4.0,19.0,23,0.00,,,0.05,meteohub,2013-01-17 04:57:00,
2013-01-16 21:01:00,46.0,12.2,30.39,NW,315,3.0,19.0,25,0.00,,,0.05,meteohub,2013-01-17 05:01:00,
2013-01-16 21:04:00,46.0,11.3,30.39,North,349,5.0,19.0,24,0.00,,,0.05,meteohub,2013-01-17 05:04:00,
2013-01-16 21:05:00,46.0,11.3,30.38,NNE,30,13.0,19.0,24,0.00,,,0.05,meteohub,2013-01-17 05:05:00,
2013-01-16 21:10:00,46.6,10.8,30.38,West,269,10.0,19.0,23,0.00,,,0.05,meteohub,2013-01-17 05:10:00,
2013-01-16 21:15:00,46.4,11.5,30.39,NE,34,8.0,19.0,24,0.00,,,0.05,meteohub,2013-01-17 05:15:00,
2013-01-16 21:21:00,46.2,10.4,30.38,North,5,6.0,19.0,23,0.00,,,0.05,meteohub,2013-01-17 05:21:00,
2013-01-16 21:26:00,46.0,11.3,30.39,NNW,343,7.0,15.0,24,0.00,,,0.05,meteohub,2013-01-17 05:26:00,
2013-01-16 21:31:00,45.7,11.8,30.38,NNE,24,6.0,13.0,25,0.00,,,0.05,meteohub,2013-01-17 05:31:00,
2013-01-16 21:36:00,45.7,11.8,30.38,NE,39,8.0,17.0,25,0.00,,,0.05,meteohub,2013-01-17 05:36:00,
2013-01-16 21:41:00,45.9,11.1,30.38,ENE,62,7.0,17.0,24,0.00,,,0.05,meteohub,2013-01-17 05:41:00,
2013-01-16 21:46:00,45.9,10.2,30.38,North,352,5.0,17.0,23,0.00,,,0.05,meteohub,2013-01-17 05:46:00,
2013-01-16 21:51:00,45.9,11.1,30.38,NNE,33,6.0,16.0,24,0.00,,,0.05,meteohub,2013-01-17 05:51:00,
2013-01-16 21:57:00,45.7,11.8,30.38,NNW,328,11.0,16.0,25,0.00,,,0.05,meteohub,2013-01-17 05:57:00,
2013-01-16 22:02:00,45.5,11.7,30.38,SSE,158,3.0,17.0,25,0.00,,,0.05,meteohub,2013-01-17 06:02:00,
2013-01-16 22:07:00,45.5,11.7,30.38,North,1,17.0,17.0,25,0.00,,,0.05,meteohub,2013-01-17 06:07:00,
2013-01-16 22:12:00,45.1,11.5,30.38,NNE,29,16.0,17.0,25,0.00,,,0.05,meteohub,2013-01-17 06:12:00,
2013-01-16 22:17:00,45.1,11.5,30.38,North,5,7.0,17.0,25,0.00,,,0.05,meteohub,2013-01-17 06:17:00,
2013-01-16 22:22:00,45.1,11.5,30.38,North,354,7.0,17.0,25,0.00,,,0.05,meteohub,2013-01-17 06:22:00,
2013-01-16 22:27:00,45.0,11.3,30.38,NNW,348,5.0,17.0,25,0.00,,,0.05,meteohub,2013-01-17 06:27:00,
2013-01-16 22:32:00,45.0,11.3,30.37,NE,43,7.0,17.0,25,0.00,,,0.05,meteohub,2013-01-17 06:32:00,
2013-01-16 22:37:00,45.0,11.3,30.37,NNW,335,5.0,17.0,25,0.00,,,0.05,meteohub,2013-01-17 06:37:00,
2013-01-16 22:42:00,45.1,10.4,30.38,NNE,32,5.0,16.0,24,0.00,,,0.05,meteohub,2013-01-17 06:42:00,
2013-01-16 22:47:00,45.0,9.3,30.38,NE,40,10.0,17.0,23,0.00,,,0.05,meteohub,2013-01-17 06:47:00,
2013-01-16 22:52:00,45.1,9.5,30.38,NNE,29,7.0,18.0,23,0.00,,,0.05,meteohub,2013-01-17 06:52:00,
2013-01-16 22:57:00,45.1,9.5,30.38,North,354,7.0,18.0,23,0.00,,,0.05,meteohub,2013-01-17 06:57:00,
2013-01-16 23:02:00,45.1,8.6,30.38,North,6,5.0,18.0,22,0.00,,,0.05,meteohub,2013-01-17 07:02:00,
2013-01-16 23:07:00,45.0,7.3,30.38,NE,39,3.0,16.0,21,0.00,,,0.05,meteohub,2013-01-17 07:07:00,
2013-01-16 23:12:00,44.8,9.1,30.38,NW,315,6.0,16.0,23,0.00,,,0.05,meteohub,2013-01-17 07:12:00,
2013-01-16 23:17:00,44.1,9.5,30.38,North,1,7.0,15.0,24,0.00,,,0.05,meteohub,2013-01-17 07:17:00,
2013-01-16 23:22:00,43.3,11.7,30.38,NNE,26,11.0,15.0,27,0.00,,,0.05,meteohub,2013-01-17 07:22:00,
2013-01-16 23:27:00,43.9,8.4,30.38,NNE,23,4.0,14.0,23,0.00,,,0.05,meteohub,2013-01-17 07:27:00,
2013-01-16 23:32:00,43.7,9.3,30.38,NNW,336,3.0,14.0,24,0.00,,,0.05,meteohub,2013-01-17 07:32:00,
2013-01-16 23:37:00,43.5,8.2,30.37,NNW,341,4.0,14.0,23,0.00,,,0.05,meteohub,2013-01-17 07:37:00,
2013-01-16 23:42:00,43.7,8.2,30.37,WNW,298,7.0,11.0,23,0.00,,,0.05,meteohub,2013-01-17 07:42:00,
2013-01-16 23:47:00,43.5,8.2,30.38,North,356,3.0,11.0,23,0.00,,,0.05,meteohub,2013-01-17 07:47:00,
2013-01-16 23:52:00,43.5,10.0,30.38,NE,43,3.0,13.0,25,0.00,,,0.05,meteohub,2013-01-17 07:52:00,
2013-01-16 23:57:00,42.4,11.7,30.38,North,8,4.0,13.0,28,0.00,,,0.05,meteohub,2013-01-17 07:57:00,